GW5168 Weather Reports


time (UTC)temp
C
wind
direction
speed
KPH
gust
KPH
rain 1hr
cm
rain 24hr
cm
rain mn
cm
humidity
%
barometer
mb
20260504025556 2 0 0.0 0.0 0.00 0.00 0.00 84 1012.3
20260504025057 2 0 0.0 0.0 0.00 0.00 0.00 84 1012.3
20260504024600 2 0 0.0 0.0 0.00 0.00 0.00 84 1012.3
20260504024056 2 0 0.0 0.0 0.00 0.00 0.00 83 1012.3
20260504023556 2 0 0.0 0.0 0.00 0.00 0.00 83 1012.4
20260504023100 3 0 0.0 0.0 0.00 0.00 0.00 83 1012.3
20260504022557 3 0 0.0 0.0 0.00 0.00 0.00 83 1012.2
20260504022056 3 0 0.0 0.0 0.00 0.00 0.00 82 1012.2
20260504021557 3 0 0.0 0.0 0.00 0.00 0.00 82 1012.3
20260504021059 3 0 0.0 0.0 0.00 0.00 0.00 82 1012.4
20260504020556 3 0 0.0 0.0 0.00 0.00 0.00 82 1012.3
20260504020107 3 0 0.0 0.0 0.00 0.00 0.00 81 1012.3
20260504015557 3 0 0.0 0.0 0.00 0.00 0.00 81 1012.2
20260504015057 3 0 0.0 0.0 0.00 0.00 0.00 80 1012.3
20260504014604 3 0 0.0 0.0 0.00 0.00 0.00 80 1012.3
20260504014056 4 0 0.0 0.0 0.00 0.00 0.00 79 1012.2
20260504013556 4 0 0.0 0.0 0.00 0.00 0.00 79 1012.2
20260504013058 4 0 0.0 0.0 0.00 0.00 0.00 78 1012.1
20260504012556 5 0 0.0 0.0 0.00 0.00 0.00 78 1012.0
20260504012057 5 0 0.0 0.0 0.00 0.00 0.00 78 1012.1
20260504011557 5 0 0.0 0.0 0.00 0.00 0.00 77 1012.0
20260504011056 5 0 0.0 0.0 0.00 0.00 0.00 76 1011.9
20260504010556 5 0 0.0 0.0 0.00 0.00 0.00 76 1011.9
20260504010056 5 0 0.0 0.0 0.00 0.00 0.00 75 1011.8
20260504005557 5 0 0.0 0.0 0.00 0.00 0.00 73 1011.7
20260504005100 6 0 0.0 0.0 0.00 0.00 0.00 73 1011.7
20260504004556 6 0 0.0 0.0 0.00 0.00 0.00 71 1011.7
20260504004057 6 0 0.0 0.0 0.00 0.00 0.00 70 1011.6
20260504003557 6 0 0.0 0.0 0.00 0.00 0.00 68 1011.5
20260504003056 7 0 0.0 0.0 0.00 0.00 0.00 67 1011.5
20260504002556 7 0 0.0 0.0 0.00 0.00 0.00 64 1011.4
20260504002056 7 0 0.0 0.0 0.00 0.00 0.00 62 1011.3
20260504001606 8 0 0.0 0.0 0.00 0.00 0.00 61 1011.2
20260504001056 8 0 0.0 0.0 0.00 0.00 0.00 58 1011.2
20260504000556 9 0 0.0 0.0 0.00 0.00 0.00 55 1011.2
20260504000059 9 0 0.0 0.0 0.00 0.00 0.00 53 1011.2
20260503235558 10 0 0.0 0.0 0.00 0.00 0.00 51 1011.1
20260503235058 10 0 0.0 0.0 0.00 0.00 0.00 48 1011.0
20260503234555 11 0 0.0 6.4 0.00 0.00 0.00 47 1011.0
20260503234057 11 0 0.0 6.4 0.00 0.00 0.00 46 1010.9
20260503233557 12 0 0.0 6.4 0.00 0.00 0.00 41 1010.9
20260503233101 12 0 0.0 4.8 0.00 0.00 0.00 40 1010.8
20260503232558 12 0 0.0 19.3 0.00 0.00 0.00 38 1010.8
20260503232056 13 0 3.2 19.3 0.00 0.00 0.00 37 1010.9
20260503231556 13 0 1.6 14.5 0.00 0.00 0.00 37 1010.8
20260503231057 13 286 1.6 14.5 0.00 0.00 0.00 35 1010.8
20260503230556 13 0 1.6 14.5 0.00 0.00 0.00 34 1010.6
20260503225557 13 0 0.0 22.5 0.00 0.00 0.00 33 1010.6
20260503225100 14 0 0.0 22.5 0.00 0.00 0.00 35 1010.6
20260503224555 14 0 4.8 25.7 0.00 0.00 0.00 34 1010.6
20260503224058 15 230 3.2 25.7 0.00 0.00 0.00 32 1010.4
20260503223557 15 195 4.8 25.7 0.00 0.00 0.00 31 1010.5
20260503223058 15 0 6.4 25.7 0.00 0.00 0.00 30 1010.4
20260503222556 15 0 4.8 16.1 0.00 0.00 0.00 31 1010.3
20260503222056 15 0 1.6 16.1 0.00 0.00 0.00 33 1010.4
20260503221600 15 229 6.4 17.7 0.00 0.00 0.00 31 1010.4
20260503221058 15 316 6.4 17.7 0.00 0.00 0.00 29 1010.4
20260503220558 15 317 6.4 14.5 0.00 0.00 0.00 30 1010.3
20260503220057 15 276 1.6 20.9 0.00 0.00 0.00 33 1010.4
20260503215556 15 211 4.8 20.9 0.00 0.00 0.00 30 1010.2
20260503215056 15 159 6.4 16.1 0.00 0.00 0.00 29 1010.2
20260503214603 15 0 3.2 14.5 0.00 0.00 0.00 29 1010.3
20260503214057 15 0 3.2 14.5 0.00 0.00 0.00 31 1010.1
20260503213556 15 178 3.2 14.5 0.00 0.00 0.00 31 1010.3
20260503213058 15 0 1.6 19.3 0.00 0.00 0.00 30 1010.3
20260503212557 15 0 3.2 19.3 0.00 0.00 0.00 31 1010.3
20260503212057 15 222 6.4 24.1 0.00 0.00 0.00 30 1010.2
20260503211556 15 188 6.4 24.1 0.00 0.00 0.00 30 1010.3
20260503211058 15 237 9.7 24.1 0.00 0.00 0.00 28 1010.3
20260503210556 15 0 8.0 19.3 0.00 0.00 0.00 32 1010.2
20260503210058 15 0 4.8 14.5 0.00 0.00 0.00 30 1010.3
20260503205556 15 211 3.2 29.0 0.00 0.00 0.00 30 1010.2
20260503205057 15 268 6.4 29.0 0.00 0.00 0.00 31 1010.3
20260503204603 16 287 1.6 24.1 0.00 0.00 0.00 30 1010.3
20260503204057 15 225 4.8 24.1 0.00 0.00 0.00 31 1010.3
20260503203556 15 282 3.2 17.7 0.00 0.00 0.00 30 1010.3
20260503203059 15 0 4.8 17.7 0.00 0.00 0.00 30 1010.3
20260503202557 15 289 3.2 29.0 0.00 0.00 0.00 31 1010.5
20260503202059 15 279 6.4 29.0 0.00 0.00 0.00 31 1010.6
20260503201558 15 285 3.2 16.1 0.00 0.00 0.00 33 1010.7
20260503201056 15 230 3.2 16.1 0.00 0.00 0.00 31 1010.7
20260503200558 15 233 6.4 17.7 0.00 0.00 0.00 31 1010.6
20260503200058 14 292 3.2 17.7 0.00 0.00 0.00 32 1010.7
20260503195557 14 209 3.2 17.7 0.00 0.00 0.00 31 1010.8
20260503195056 13 0 4.8 16.1 0.00 0.00 0.00 32 1010.9
20260503194600 13 224 1.6 25.7 0.00 0.00 0.00 33 1010.8
20260503194058 14 205 4.8 25.7 0.00 0.00 0.00 31 1010.9
20260503193556 15 240 3.2 20.9 0.00 0.00 0.00 32 1011.0
20260503193111 15 196 4.8 20.9 0.00 0.00 0.00 33 1011.1
20260503192556 15 185 4.8 16.1 0.00 0.00 0.00 32 1011.0
20260503192057 13 0 3.2 16.1 0.00 0.00 0.00 32 1011.0
20260503191558 13 252 4.8 16.1 0.00 0.00 0.00 30 1011.2
20260503191057 14 0 3.2 24.1 0.00 0.00 0.00 31 1011.3
20260503190557 14 17 6.4 24.1 0.00 0.00 0.00 32 1011.1
20260503190108 14 213 3.2 22.5 0.00 0.00 0.00 30 1011.1
20260503185556 14 331 6.4 22.5 0.00 0.00 0.00 33 1011.1
20260503185056 13 219 8.0 22.5 0.00 0.00 0.00 32 1011.1
20260503184603 15 263 6.4 24.1 0.00 0.00 0.00 30 1011.2
20260503184057 15 199 6.4 30.6 0.00 0.00 0.00 35 1011.2
20260503183557 14 59 9.7 30.6 0.00 0.00 0.00 30 1011.3
20260503183109 13 234 12.9 25.7 0.00 0.00 0.00 33 1011.3
20260503182557 13 267 4.8 24.1 0.00 0.00 0.00 32 1011.5
20260503182057 13 342 8.0 24.1 0.00 0.00 0.00 33 1011.6
20260503181559 13 266 6.4 24.1 0.00 0.00 0.00 33 1011.5
20260503181057 13 321 6.4 24.1 0.00 0.00 0.00 34 1011.2
20260503180600 13 293 9.7 24.1 0.00 0.00 0.00 32 1011.4
20260503180100 13 149 6.4 20.9 0.00 0.00 0.00 32 1011.5
20260503175556 13 273 1.6 20.9 0.00 0.00 0.00 34 1011.5
20260503175056 13 306 4.8 16.1 0.00 0.00 0.00 33 1011.3
20260503174556 13 274 3.2 17.7 0.00 0.00 0.00 33 1011.5
20260503174100 12 299 3.2 20.9 0.00 0.00 0.00 35 1011.5
20260503173559 13 289 3.2 20.9 0.00 0.00 0.00 35 1011.6
20260503173112 12 259 3.2 19.3 0.00 0.00 0.00 40 1011.7
20260503172556 12 271 1.6 19.3 0.00 0.00 0.00 35 1011.6
20260503172101 12 330 3.2 14.5 0.00 0.00 0.00 37 1011.7
20260503171557 12 0 3.2 24.1 0.00 0.00 0.00 38 1011.7
20260503171057 12 0 6.4 24.1 0.00 0.00 0.00 35 1011.8
20260503170558 12 267 8.0 22.5 0.00 0.00 0.00 35 1011.7
20260503150556 10 278 8.0 22.5 0.00 0.00 0.00 43 1012.9
20260503150112 10 198 4.8 22.5 0.00 0.00 0.00 52 1012.9
20260503140118 10 288 1.6 22.5 0.00 0.00 0.00 46 1012.7
20260503131056 7 0 3.2 14.5 0.00 0.00 0.00 52 1012.6
20260503130556 8 219 4.8 14.5 0.00 0.00 0.00 49 1012.7
20260503110600 5 300 0.0 9.7 0.00 0.00 0.00 63 1012.1
20260503110115 5 0 0.0 9.7 0.00 0.00 0.00 61 1012.1
20260503100108 5 0 0.0 12.9 0.00 0.00 0.00 61 1011.2
20260503081606 6 0 0.0 9.7 0.00 0.03 0.00 57 1010.6
20260503081057 6 0 1.6 9.7 0.00 0.03 0.00 56 1010.6
20260503080559 6 0 0.0 8.0 0.00 0.03 0.00 57 1010.6
20260503072557 6 0 0.0 8.0 0.00 0.03 0.00 59 1010.3
20260503072100 6 0 0.0 8.0 0.00 0.03 0.00 58 1010.4
20260503071609 6 0 1.6 9.7 0.00 0.03 0.00 57 1010.4
20260503071056 6 0 0.0 9.7 0.00 0.03 0.00 58 1010.2
20260503070556 6 315 0.0 6.4 0.00 0.03 0.00 57 1010.3
20260503060108 6 0 0.0 8.0 0.00 0.05 0.00 57 1010.3
20260503055057 6 0 1.6 14.5 0.00 0.05 0.00 56 1010.4
20260503054558 6 316 0.0 6.4 0.00 0.05 0.00 56 1010.6
20260503054057 6 0 0.0 6.4 0.00 0.05 0.00 57 1010.5
20260503053557 6 307 0.0 6.4 0.00 0.05 0.00 57 1010.6
20260503053058 6 0 0.0 8.0 0.00 0.05 0.00 57 1010.7
20260503052556 6 0 0.0 8.0 0.00 0.05 0.00 57 1010.7
20260503052057 6 320 0.0 8.0 0.00 0.05 0.00 57 1010.9
20260503051600 6 0 0.0 8.0 0.00 0.05 0.00 55 1010.9
20260503051056 6 0 1.6 8.0 0.00 0.05 0.00 55 1011.0
20260503050601 6 274 0.0 8.0 0.00 0.05 0.00 57 1011.1
20260503050058 6 326 0.0 6.4 0.00 0.05 0.00 56 1011.1
20260503045557 6 0 0.0 6.4 0.00 0.05 0.00 58 1011.2
20260503045057 6 0 1.6 6.4 0.00 0.05 0.00 56 1011.2
20260503044557 6 253 0.0 9.7 0.00 0.05 0.00 57 1011.2
20260503044058 6 0 0.0 9.7 0.00 0.05 0.00 57 1011.3
20260503043557 6 350 1.6 9.7 0.00 0.05 0.00 59 1011.3
20260503043056 6 0 0.0 6.4 0.00 0.05 0.00 61 1011.4
20260503042557 6 0 0.0 6.4 0.00 0.05 0.00 62 1011.4
20260503042057 5 0 0.0 6.4 0.00 0.05 0.00 61 1011.4
20260503041556 5 5 0.0 4.8 0.00 0.05 0.00 63 1011.4
20260503041058 5 0 0.0 4.8 0.00 0.05 0.00 64 1011.4
20260503040556 5 0 0.0 1.6 0.00 0.05 0.00 67 1011.4
20260503040059 5 0 0.0 4.8 0.00 0.05 0.00 66 1011.5
20260503035557 5 0 0.0 4.8 0.00 0.05 0.05 69 1011.6
20260503035059 5 0 0.0 3.2 0.00 0.05 0.05 71 1011.5
20260503034555 5 0 0.0 3.2 0.00 0.05 0.05 72 1011.4
20260503034057 4 0 0.0 4.8 0.00 0.05 0.05 73 1011.4
20260503033556 4 0 0.0 4.8 0.00 0.05 0.05 77 1011.4
20260503033055 4 0 0.0 4.8 0.00 0.05 0.05 79 1011.4
20260503032600 4 0 0.0 0.0 0.00 0.05 0.05 79 1011.4
20260503032056 5 0 0.0 0.0 0.00 0.05 0.05 79 1011.4
20260503031555 5 0 0.0 0.0 0.00 0.05 0.05 78 1011.4
20260503031057 5 0 0.0 3.2 0.00 0.05 0.05 78 1011.5
20260503030556 5 0 0.0 3.2 0.00 0.05 0.05 78 1011.6
20260503030056 5 0 0.0 3.2 0.00 0.05 0.05 78 1011.5